SCP
2 1 0 1 1 0 0 0 0 0 0 0 0 0 0 0 0 0 0 0 0 0
1 0 1 1 1 0 0 0 0 0 0 0 0 0 0 0 0 0 0 0 0 0
1 0 1 0 0 0 0 0 0 0 0 0 0 0 0 0 0 0 0 0 0 0
0 1 1 0 0 0 0 0 0 0 0 0 0 0 0 0 0 0 0 0 0 0
0 0 1 0 0 0 0 0 0 0 0 0 0 0 0 0 0 0 0 0 0 0
1 0 0 0 0 0 0 0 0 0 0 0 0 -0 0 -0 0 -0 0 0 -0 -0
0 0 0 0 0 0 0 0 0 0 0 -0 -0 -0 -0 -0 0 0 -0 -0 -0 -0
0 0 0 0 0 0 0 0 0 0 -0 -0 0 0 -0 -0 0 -0 0 0 0 0
0 0 0 0 0 0 0 0 0 -0 -0 0 0 -0 -0 0 0 0 0 0 0 0
0 0 0 0 0 0 0 -0 0 0 0 0 0 -0 0 0 0 0 0 0 0 0
0 0 0 0 0 0 0 0 0 0 0 -0 -0 0 0 0 0 0 0 -0 0 -0
0 0 0 0 0 0 0 0 0 0 0 -0 0 0 0 -0 0 0 0 -0 -0 0
0 0 0 0 0 0 0 0 0 0 -0 0 0 -0 0 -0 0 -0 -0 0 -0 0
0 0 0 0 0 0 0 0 0 0 -0 0 0 -0 -0 -0 0 0 0 0 -0 -0
Wind_Speed_500mb
21 21 28 31 36 38 38 38 35 41 38 43 43 46 40 39 40 40 39 36 34 39
18 33 33 34 37 37 41 38 37 39 40 43 45 40 37 36 39 36 33 31 29 28
30 38 32 35 37 39 38 41 36 38 43 44 43 36 33 34 31 32 26 27 25 26
32 36 35 37 40 39 38 36 37 42 46 46 34 31 32 31 28 26 26 21 17 18
32 31 38 40 38 40 39 40 39 45 48 31 29 27 28 26 21 23 23 23 21 24
31 38 39 37 42 40 39 41 47 45 32 20 23 21 23 20 22 22 22 25 25 24
35 38 37 40 45 37 47 36 41 31 19 17 17 17 20 19 20 22 25 26 25 20
33 35 34 45 43 42 42 36 28 25 16 16 12 14 18 19 21 23 18 21 23 14
33 29 41 42 39 37 33 25 23 19 14 13 12 11 17 21 20 25 25 24 33 29
30 33 38 35 34 36 31 21 18 18 15 15 15 14 18 16 23 32 39 35 32 31
32 33 31 30 33 35 28 20 19 20 22 18 18 16 9 13 18 23 29 31 39 30
32 27 29 27 33 30 24 23 22 21 23 23 22 18 15 25 26 26 29 38 41 38
27 29 26 23 23 21 24 22 19 23 26 25 22 18 14 21 23 23 30 38 45 42
24 29 23 25 20 23 22 22 25 24 26 28 31 27 21 18 26 27 28 30 42 47
Wind_Direction_500mb
287 299 315 305 310 315 314 308 305 310 304 299 305 311 305 305 304 302 298 294 287 283
316 320 312 316 314 312 309 303 308 306 303 307 311 313 308 306 304 305 300 294 289 289
292 306 301 315 316 314 309 302 311 305 311 307 313 312 311 308 307 308 305 302 294 284
312 312 319 318 314 312 302 307 304 308 312 318 313 315 312 312 308 308 307 307 299 292
321 323 313 315 318 301 304 304 310 311 316 307 316 315 321 315 309 305 317 301 296 292
320 322 323 321 308 312 313 317 320 317 306 314 318 327 330 319 319 324 318 305 302 296
326 327 328 312 316 317 321 324 332 334 330 329 333 329 336 340 340 333 322 320 315 311
333 335 317 324 324 324 321 318 332 336 342 354 356 355 357 355 347 353 2 354 3 331
343 339 336 339 343 341 331 336 336 347 11 14 2 32 10 5 21 27 37 21 40 44
347 354 353 352 355 359 4 16 34 31 23 42 39 49 27 31 58 48 51 49 46 61
4 4 1 6 17 21 27 45 40 35 55 54 53 40 20 27 40 37 36 64 53 73
5 4 11 12 16 21 44 49 44 42 45 52 54 48 25 43 61 66 61 68 58 83
6 15 9 11 12 25 32 42 47 50 56 47 41 56 50 53 63 75 68 70 72 80
20 34 17 33 42 28 37 47 53 54 53 59 46 41 44 70 88 75 78 82 86 90
Wind_Speed_850mb
21 21 28 31 36 38 38 38 35 41 38 43 43 46 40 39 40 40 39 36 34 39
18 33 33 34 37 37 41 38 37 39 40 43 45 40 37 36 39 36 33 31 29 28
30 38 32 35 37 39 38 41 36 38 43 44 43 36 33 34 31 32 26 27 25 26
32 36 35 37 40 39 38 36 37 42 46 46 34 31 32 31 28 26 26 21 17 18
32 31 38 40 38 40 39 40 39 45 48 31 29 27 28 26 21 23 23 23 21 24
31 38 39 37 42 40 39 41 47 45 32 20 23 21 23 20 22 22 22 25 25 24
35 38 37 40 45 37 47 36 41 31 19 17 17 17 20 19 20 22 25 26 25 20
33 35 34 45 43 42 42 36 28 25 16 16 12 14 18 19 21 23 18 21 23 14
33 29 41 42 39 37 33 25 23 19 14 13 12 11 17 21 20 25 25 24 33 29
30 33 38 35 34 36 31 21 18 18 15 15 15 14 18 16 23 32 39 35 32 31
32 33 31 30 33 35 28 20 19 20 22 18 18 16 9 13 18 23 29 31 39 30
32 27 29 27 33 30 24 23 22 21 23 23 22 18 15 25 26 26 29 38 41 38
27 29 26 23 23 21 24 22 19 23 26 25 22 18 14 21 23 23 30 38 45 42
24 29 23 25 20 23 22 22 25 24 26 28 31 27 21 18 26 27 28 30 42 47
Wind_Direction_850mb
287 299 315 305 310 315 314 308 305 310 304 299 305 311 305 305 304 302 298 294 287 283
316 320 312 316 314 312 309 303 308 306 303 307 311 313 308 306 304 305 300 294 289 289
292 306 301 315 316 314 309 302 311 305 311 307 313 312 311 308 307 308 305 302 294 284
312 312 319 318 314 312 302 307 304 308 312 318 313 315 312 312 308 308 307 307 299 292
321 323 313 315 318 301 304 304 310 311 316 307 316 315 321 315 309 305 317 301 296 292
320 322 323 321 308 312 313 317 320 317 306 314 318 327 330 319 319 324 318 305 302 296
326 327 328 312 316 317 321 324 332 334 330 329 333 329 336 340 340 333 322 320 315 311
333 335 317 324 324 324 321 318 332 336 342 354 356 355 357 355 347 353 2 354 3 331
343 339 336 339 343 341 331 336 336 347 11 14 2 32 10 5 21 27 37 21 40 44
347 354 353 352 355 359 4 16 34 31 23 42 39 49 27 31 58 48 51 49 46 61
4 4 1 6 17 21 27 45 40 35 55 54 53 40 20 27 40 37 36 64 53 73
5 4 11 12 16 21 44 49 44 42 45 52 54 48 25 43 61 66 61 68 58 83
6 15 9 11 12 25 32 42 47 50 56 47 41 56 50 53 63 75 68 70 72 80
20 34 17 33 42 28 37 47 53 54 53 59 46 41 44 70 88 75 78 82 86 90